Weather History for Moron de la Frontera, Spain

Change the Weather History Date:

Wednesday, December 5, 2012

  Actual Average Record
Temperature  
Mean Temperature 52 °F -  
Max Temperature 60 °F 60 °F 69 °F (2001)
Min Temperature 44 °F 42 °F 30 °F (1998)
Degree Days  
Heating Degree Days 13    
Growing Degree Days 2 (Base 50)    
Moisture  
Dew Point 48 °F    
Average Humidity 88    
Maximum Humidity 100    
Minimum Humidity 52    
Precipitation  
Precipitation 0.00 in - - ()
Sea Level Pressure  
Sea Level Pressure 30.24 in    
Wind  
Wind Speed 4 mph ()    
Max Wind Speed 8 mph    
Max Gust Speed -    
Visibility 5.8 miles    
Events Fog    
Averages and records for this station are not official NWS values.
T = Trace of Precipitation, MM = Missing Value Source: Averaged Metar Reports

Daily Weather History Graph

Daily Weather History Graph

Search for Another Location

Airport:

Trip Planner

Search our weather history database for the weather conditions in past years. The results will help you decide how hot, cold, wet, or windy it might be!

Date:

Astronomy

Dec. 05, 2012 Rise Set
Actual Time 8:21 AM CET 6:05 PM CET
Civil Twilight 7:52 AM CET 6:33 PM CET
Nautical Twilight 7:20 AM CET 7:06 PM CET
Astronomical Twilight 6:48 AM CET 7:37 PM CET
Moon No Moon Rise 12:44 PM CET (12/5)
Length of Visible Light 10h 41m
Length of Day
9h 43m
Waning Gibbous, 62% of the Moon is Illuminated
Dec 5
Waning Gibbous
Dec 6
Last Quarter
Dec 13
New
Dec 20
First Quarter
Dec 28
Full

Hourly Weather History & Observations

Time (CET) Temp. Windchill Dew Point Humidity Pressure Visibility Wind Dir Wind Speed Gust Speed Precip Events Conditions
12:00 AM 55.4 °F - 53.6 °F 94% 30.30 in 6.2 mi West 8.1 mph - N/A   Mostly Cloudy
1:00 AM 55.4 °F - 53.6 °F 94% 30.27 in 6.2 mi WSW 6.9 mph - N/A   Mostly Cloudy
2:00 AM 53.6 °F - 53.6 °F 100% 30.27 in 6.2 mi West 6.9 mph - N/A   Mostly Cloudy
3:00 AM 53.6 °F - 53.6 °F 100% 30.27 in 6.2 mi West 5.8 mph - N/A   Mostly Cloudy
4:00 AM 51.8 °F - 51.8 °F 100% 30.24 in 6.2 mi WSW 6.9 mph - N/A   Mostly Cloudy
5:00 AM 51.8 °F - 51.8 °F 100% 30.24 in 6.2 mi WSW 5.8 mph - N/A   Mostly Cloudy
6:00 AM 51.8 °F - 51.8 °F 100% 30.21 in 6.2 mi WSW 5.8 mph - N/A   Mostly Cloudy
7:00 AM 51.8 °F - 51.8 °F 100% 30.24 in 6.2 mi West 4.6 mph - N/A   Mostly Cloudy
8:00 AM 50.0 °F - 50.0 °F 100% 30.24 in 6.2 mi Variable 2.3 mph - N/A   Scattered Clouds
9:00 AM 48.2 °F - 48.2 °F 100% 30.24 in 5.6 mi Variable 2.3 mph - N/A   Unknown
9:25 AM 48.2 °F - 48.2 °F 100% 30.24 in 4.3 mi Variable 2.3 mph - N/A   Unknown
9:45 AM 48.2 °F - 48.2 °F 100% 30.24 in 0.3 mi Variable 2.3 mph - N/A Fog Fog
10:00 AM 51.8 °F - 51.8 °F 100% 30.24 in 3.7 mi Variable 2.3 mph - N/A   Partly Cloudy
11:00 AM 53.6 °F - 50.0 °F 88% 30.30 in 6.2 mi Variable 2.3 mph - N/A   Partly Cloudy
12:00 PM 55.4 °F - 50.0 °F 82% 30.27 in 6.2 mi Calm Calm - N/A   Partly Cloudy
1:00 PM 57.2 °F - 46.4 °F 67% 30.21 in 6.2 mi Variable 1.2 mph - N/A   Partly Cloudy
2:00 PM 60.8 °F - 42.8 °F 52% 30.21 in 6.2 mi Calm Calm - N/A   Partly Cloudy
4:00 PM 59.0 °F - 44.6 °F 59% 30.18 in 6.2 mi Variable 1.2 mph - N/A   Partly Cloudy
5:00 PM 59.0 °F - 44.6 °F 59% 30.21 in 6.2 mi Calm Calm - N/A   Partly Cloudy
6:00 PM 55.4 °F - 44.6 °F 67% 30.21 in 6.2 mi Calm Calm - N/A   Partly Cloudy
7:00 PM 51.8 °F - 42.8 °F 71% 30.21 in 6.2 mi Calm Calm - N/A   Partly Cloudy
8:00 PM 48.2 °F - 44.6 °F 87% 30.24 in 6.2 mi SSE 2.3 mph - N/A   Partly Cloudy
9:00 PM 48.2 °F - 42.8 °F 82% 30.24 in 6.2 mi South 2.3 mph - N/A   Partly Cloudy
10:00 PM 44.6 °F 43.1 °F 42.8 °F 93% 30.24 in 6.2 mi South 3.5 mph - N/A   Partly Cloudy
11:00 PM 44.6 °F 43.1 °F 42.8 °F 93% 30.24 in 6.2 mi SSE 3.5 mph - N/A   Partly Cloudy